Lexington Weather

Lexington, Massachusetts, USA

27°F
2/26/2021 8:22am 
  • Lexington Conditions: Clear
  • Temperature: 26.6°F / -3.0°CWarmer 2.0°F than last hour.
  • Dew Point: 16.3°FIncreased 1.0°Fsince last hour.
  • Relative Humidity: 65%Decreased 2.0% since last hour.
  • Wind: Wind from NNW NNW 2 mph, 10-min avg: 1 mph, gust: 3 mph
  • Barometer: 30.37 inRising 0.03  inHg/hr Rising Slowly
  • Visibility: 10 miles
  • Snow Today: 0.0 in
  •   

Regional Weather Roundup
for Boston / Norton, MA

        
000
ASUS41 KBOX 231404
RWRBOX

REGIONAL WEATHER ROUNDUP
NATIONAL WEATHER SERVICE BOSTON/NORTON MA
900 AM EST TUE FEB 23 2021

NOTE:  "FAIR" INDICATES FEW OR NO CLOUDS BELOW 12,000 FEET WITH NO 
SIGNIFICANT WEATHER AND/OR OBSTRUCTIONS TO VISIBILITY.

MAZALL-231500-
EASTERN MASSACHUSETTS
  
CITY           SKY/WX    TMP DP  RH WIND       PRES   REMARKS
BOSTON         PTSUNNY   35  30  82 SW13      29.64S WCI  26          
BEVERLY        PTSUNNY   39  29  67 W13       29.61F WCI  31          
LAWRENCE       CLOUDY    37  29  72 W10       29.62F WCI  30          
BEDFORD        PTSUNNY   37  29  72 SW6       29.62S                  
BLUE HILL        N/A     34  30  85 SW9       29.61F WCI  27          
NORWOOD        CLOUDY    38  29  70 SW8       29.65S                  
MARSHFIELD     CLOUDY    37  32  81 VRB5G13   29.65S                  
PLYMOUTH       CLOUDY    34  30  85 SW9       29.66R WCI  27          
TAUNTON        CLOUDY    35  29  78 SW8       29.66S WCI  29          
NEW BEDFORD    CLOUDY    37  29  72 SW7       29.66S WCI  32          
$$

MAZALL-231500-
CAPE COD AND THE ISLANDS
  
CITY           SKY/WX    TMP DP  RH WIND       PRES   REMARKS
FALMOUTH       NOT AVBL                                               
HYANNIS        PTSUNNY   38  31  76 W12       29.65  WCI  30          
CHATHAM        FAIR      38  31  76 SW7       29.68R                  
PROVINCETOWN   FAIR      38  33  82 W18       29.65F WCI  28          
NANTUCKET      FAIR      39  35  86 W15       29.68S WCI  31          
MARTHAS VNYRD  CLOUDY    39  32  76 W10       29.68S                  
$$
 
MAZALL-231500-
CENTRAL AND WESTERN MASSACHUSETTS
  
CITY           SKY/WX    TMP DP  RH WIND       PRES   REMARKS
WORCESTER      FAIR      35  25  66 W10G22    29.59F WCI  27          
FITCHBURG      CLOUDY    36  30  79 VRB6      29.62S WCI  31          
ORANGE         CLOUDY    33  30  88 S5        29.62F WCI  29          
SPRINGFIELD    PTSUNNY   35  29  80 SW6       29.63F WCI  30          
WESTFIELD      FAIR      34  31  88 S7        29.63F WCI  28          
NORTH ADAMS    PTSUNNY   35  24  64 W7        29.62S WCI  29          
PITTSFIELD     FAIR      32  23  69 CALM      29.57F                  
$$
 
RIZALL-231500-
RHODE ISLAND
  
CITY           SKY/WX    TMP DP  RH WIND       PRES   REMARKS
PROVIDENCE     PTSUNNY   36  30  79 SW8       29.68S WCI  30          
NEWPORT        CLOUDY    35  31  85 VRB3      29.67F                  
BLOCK ISLAND   FAIR      37  31  78 W12G20    29.69F WCI  29          
SMITHFIELD     PTSUNNY   36  30  79 SW5       29.65R                  
WESTERLY       FAIR      35  30  82 SW10      29.69F WCI  27          
$$
 
CTZALL-231500-
CONNECTICUT
  
CITY           SKY/WX    TMP DP  RH WIND       PRES   REMARKS
BRADLEY INTL   PTSUNNY   37  29  72 SW8       29.65F WCI  31          
HARTFORD       FAIR      36  30  79 SE5       29.66F                  
BRIDGEPORT     FAIR      37  31  78 SW9       29.70F WCI  30          
DANBURY        FAIR      36  26  67 W6        29.67F WCI  31          
GROTON         FAIR      38  32  79 W9G20     29.68  WCI  31          
NEW HAVEN      FAIR      38  32  79 SW7       29.67F                  
CHESTER        FAIR      37  30  75 SW7       29.67F                  
MERIDEN        FAIR      34  29  82 S6        29.67F WCI  29          
WILLIMANTIC    FAIR      36  30  79 SW5       29.66F                  
OXFORD         FAIR      39  34  82 CALM      29.64F                  
$$

MEZ002-015-021-024-NHZ003-005-008-011-012-014-VTZ005-008-231500-
NORTHERN NEW ENGLAND
  
CITY           SKY/WX    TMP DP  RH WIND       PRES   REMARKS
PORTLAND ME    PTSUNNY   33  29  85 W7        29.57F WCI  27          
BANGOR ME      PTSUNNY   33  29  85 W6        29.52R WCI  28          
CONCORD NH     CLOUDY    33  30  88 S6        29.58F WCI  28          
MANCHESTER NH  PTSUNNY   35  30  82 CALM      29.58F                  
NASHUA NH      CLOUDY    36  36 100 VRB3      29.61F                  
PORTSMOUTH NH  PTSUNNY   38  29  72 W9        29.57  WCI  31          
JAFFREY NH     CLOUDY    33  26  75 W5        29.57F WCI  29          
KEENE NH       LGT RAIN  34  28  80 SE7       29.61S WCI  28          
BURLINGTON VT  CLOUDY    35  27  72 S8        29.54F WCI  29          
MT. WASHINGTON BLWGSNOW  10  10 100 W39         N/A  VSB 0   WCI -14  
$$

NYZ052-076-231500-
EASTERN NEW YORK
  
CITY           SKY/WX    TMP DP  RH WIND       PRES   REMARKS
ALBANY         PTSUNNY   33  24  69 S3        29.61F                  
NEW YORK CITY  PTSUNNY   39  27  62 SW10      29.71S                  
$$
 
ANZALL-231500-
MARINE OBSERVATIONS
  
STATION/POSITION TIME  TEMP    WIND        PRES    VSBY  WAVE
                       AIR SEA DIR/SP/G                  HT/PER
                 (UTC) (F)     (DEG/KT/KT) (MB)    (MI)  (FT/S)
BOSTON BUOY      1340   37 39  230/ 16/ 17 1003.7S
BUZZARDS BAY     NOT AVBL
NANTUCKET SOUND  1340      36  240/  8/ 12   N/A
MASS BAY-STELLWA 1304   38     240/ 17/ 21 1001.6R  1 7/8  3/ 4
ISLE OF SHOALS   NOT AVBL
S OF BLOCK IS    1326      38                N/A           9/11
$$

......................KEY.........................
  SKY/WX - SKY CONDITION/PRESENT WEATHER
  TMP    - TEMPERATURE IN FAHRENHEIT
  DWPT   - DEWPOINT IN FAHRENHEIT
  RH     - RELATIVE HUMIDITY IN PERCENT
  WIND   - DIRECTION AND SPEED IN MPH
  PRES   - MEAN SEA LEVEL PRESSURE IN INCHES OF HG
  WCI    - WIND CHILL INDEX
  VSB    - VISIBILITY IN MILES
  HX     - HEAT INDEX
  TC     - TEMPERATURE IN CELSIUS
  VRB    - VARIABLE WIND DIRECTION
  N/A    - NOT AVAILABLE
  
      

Other recent Regional Weather Roundups

Fri Feb 26, 8:04am

Fri Feb 26, 7:04am

Fri Feb 26, 6:04am

Fri Feb 26, 5:04am

Fri Feb 26, 4:04am

Fri Feb 26, 3:04am

Fri Feb 26, 2:04am

Fri Feb 26, 1:04am

Fri Feb 26, 12:04am

Thu Feb 25, 11:04pm

Thu Feb 25, 10:04pm

Thu Feb 25, 9:04pm

Thu Feb 25, 8:05pm

Thu Feb 25, 7:05pm

Thu Feb 25, 6:04pm

Thu Feb 25, 5:04pm

Thu Feb 25, 4:05pm

Thu Feb 25, 3:05pm

Thu Feb 25, 2:04pm

Thu Feb 25, 1:04pm

Thu Feb 25, 12:05pm

Thu Feb 25, 11:04am

Thu Feb 25, 10:04am

Thu Feb 25, 9:04am

Thu Feb 25, 8:04am

Thu Feb 25, 7:04am

Thu Feb 25, 6:04am

Thu Feb 25, 5:04am

Thu Feb 25, 4:04am

Thu Feb 25, 3:04am

Thu Feb 25, 2:04am

Thu Feb 25, 1:04am

Thu Feb 25, 12:04am

Wed Feb 24, 11:04pm

Wed Feb 24, 10:05pm

Wed Feb 24, 9:04pm

Wed Feb 24, 8:04pm

Wed Feb 24, 7:04pm

Wed Feb 24, 6:04pm

Wed Feb 24, 5:04pm

Wed Feb 24, 4:04pm

Wed Feb 24, 3:04pm

Wed Feb 24, 2:05pm

Wed Feb 24, 1:05pm

Wed Feb 24, 12:05pm

Wed Feb 24, 11:04am

Wed Feb 24, 10:04am

Wed Feb 24, 9:04am

Wed Feb 24, 8:04am

Wed Feb 24, 7:04am

Wed Feb 24, 6:04am

Wed Feb 24, 5:04am

Wed Feb 24, 4:04am

Wed Feb 24, 3:04am

Wed Feb 24, 2:04am

Wed Feb 24, 1:04am

Wed Feb 24, 12:04am

Tue Feb 23, 11:04pm

Tue Feb 23, 10:04pm

Tue Feb 23, 9:04pm

Tue Feb 23, 8:05pm

Tue Feb 23, 7:04pm

Tue Feb 23, 6:04pm

Tue Feb 23, 5:04pm

Tue Feb 23, 4:05pm

Tue Feb 23, 3:04pm

Tue Feb 23, 2:04pm

Tue Feb 23, 1:04pm

Tue Feb 23, 12:04pm

Tue Feb 23, 11:04am

Tue Feb 23, 10:04am

Tue Feb 23, 7:04am

Tue Feb 23, 6:04am

Tue Feb 23, 5:04am

Tue Feb 23, 4:04am

Tue Feb 23, 3:04am

Tue Feb 23, 2:04am

Tue Feb 23, 1:04am

Tue Feb 23, 12:04am

Mon Feb 22, 11:04pm

Mon Feb 22, 10:04pm

Mon Feb 22, 9:04pm

Mon Feb 22, 8:04pm

Mon Feb 22, 7:04pm

Mon Feb 22, 6:04pm

Mon Feb 22, 5:04pm

Mon Feb 22, 4:05pm

Mon Feb 22, 3:04pm

Mon Feb 22, 2:05pm

Mon Feb 22, 1:04pm

Mon Feb 22, 12:05pm

Mon Feb 22, 11:04am

Mon Feb 22, 10:04am

Mon Feb 22, 9:05am

Mon Feb 22, 8:04am

Mon Feb 22, 7:04am

Mon Feb 22, 6:04am

Mon Feb 22, 5:04am

Mon Feb 22, 4:04am

Mon Feb 22, 3:04am

Mon Feb 22, 2:04am

Mon Feb 22, 1:04am

Mon Feb 22, 12:04am

Sun Feb 21, 11:04pm

Sun Feb 21, 10:05pm

Sun Feb 21, 9:04pm

Sun Feb 21, 8:04pm

Sun Feb 21, 7:04pm

Sun Feb 21, 6:04pm

Sun Feb 21, 5:04pm

Sun Feb 21, 4:05pm

Sun Feb 21, 3:04pm

Sun Feb 21, 2:04pm

Sun Feb 21, 1:05pm

Sun Feb 21, 12:05pm

Sun Feb 21, 11:04am

Sun Feb 21, 10:05am

Sun Feb 21, 9:04am

Sun Feb 21, 8:04am

Sun Feb 21, 7:04am

Sun Feb 21, 6:04am

Sun Feb 21, 5:04am

Sun Feb 21, 4:04am

Sun Feb 21, 3:04am

Sun Feb 21, 2:04am

Sun Feb 21, 1:04am

Sun Feb 21, 12:04am

Sat Feb 20, 11:04pm

Sat Feb 20, 10:04pm

Sat Feb 20, 9:04pm

Sat Feb 20, 8:04pm

Sat Feb 20, 7:04pm

Sat Feb 20, 6:04pm

Sat Feb 20, 5:04pm

Sat Feb 20, 4:05pm

Sat Feb 20, 3:04pm

Sat Feb 20, 2:04pm

Sat Feb 20, 1:05pm

Sat Feb 20, 12:05pm

Sat Feb 20, 11:04am

Sat Feb 20, 10:05am

Sat Feb 20, 9:04am

Sat Feb 20, 8:04am

Sat Feb 20, 7:04am

Sat Feb 20, 6:04am

Sat Feb 20, 5:04am

Sat Feb 20, 4:04am

Sat Feb 20, 3:04am

Sat Feb 20, 2:04am

Sat Feb 20, 1:04am

Sat Feb 20, 12:04am

Fri Feb 19, 11:04pm

Fri Feb 19, 10:05pm

Fri Feb 19, 9:04pm

Fri Feb 19, 8:04pm

Fri Feb 19, 7:04pm

Fri Feb 19, 6:04pm

Fri Feb 19, 5:04pm

Fri Feb 19, 4:05pm

Fri Feb 19, 3:04pm

Fri Feb 19, 2:04pm

Fri Feb 19, 1:05pm

Fri Feb 19, 12:05pm

Fri Feb 19, 11:04am

Fri Feb 19, 10:04am

Fri Feb 19, 9:04am

Meta data:

ID: 98c3ffc3-cf13-4f73-9e70-2b43783aea27
Link: https://api.weather.gov/products/98c3ffc3-cf13-4f73-9e70-2b43783aea27